TimeMST,TemperatureF,Dew PointF,Humidity,Sea Level PressureIn,VisibilityMPH,Wind Direction,Wind SpeedMPH,Gust SpeedMPH,PrecipitationIn,Events,Conditions,WindDirDegrees,DateUTC
12:55 AM,25.0,16.0,69,30.11,10.0,East,8.1,-,N/A,,Clear,90,2012-11-24 07:55:00
1:55 AM,24.1,16.0,71,30.10,10.0,ENE,8.1,-,N/A,,Clear,60,2012-11-24 08:55:00
2:55 AM,25.0,16.0,69,30.06,10.0,East,6.9,-,N/A,,Clear,80,2012-11-24 09:55:00
3:55 AM,23.0,16.0,74,30.05,10.0,ENE,3.5,-,N/A,,Clear,70,2012-11-24 10:55:00
4:55 AM,21.9,16.0,78,30.04,10.0,Calm,Calm,-,N/A,,Clear,0,2012-11-24 11:55:00
5:55 AM,21.9,16.0,78,30.01,10.0,Calm,Calm,-,N/A,,Clear,0,2012-11-24 12:55:00
6:55 AM,21.0,16.0,81,30.00,10.0,WNW,4.6,-,N/A,,Clear,290,2012-11-24 13:55:00
7:55 AM,23.0,17.1,78,29.99,10.0,Calm,Calm,-,N/A,,Clear,0,2012-11-24 14:55:00
8:55 AM,26.1,18.0,71,29.98,10.0,SSW,3.5,-,N/A,,Clear,210,2012-11-24 15:55:00
9:55 AM,32.0,21.0,64,29.95,10.0,Calm,Calm,-,N/A,,Clear,0,2012-11-24 16:55:00
10:55 AM,39.9,23.0,51,29.92,10.0,NNW,3.5,-,N/A,,Clear,340,2012-11-24 17:55:00
11:55 AM,48.9,26.1,41,29.88,10.0,SW,6.9,-,N/A,,Clear,230,2012-11-24 18:55:00
12:55 PM,60.1,23.0,24,29.85,10.0,NW,13.8,24.2,N/A,,Partly Cloudy,310,2012-11-24 19:55:00
1:08 PM,57.2,23.0,27,29.83,10.0,North,18.4,-,N/A,,Clear,350,2012-11-24 20:08:00
1:55 PM,55.0,24.1,30,29.87,10.0,NNW,17.3,-,N/A,,Clear,330,2012-11-24 20:55:00
2:55 PM,54.0,25.0,33,29.88,10.0,NW,8.1,-,N/A,,Mostly Cloudy,320,2012-11-24 21:55:00
3:55 PM,50.0,26.1,39,29.89,10.0,NNW,6.9,-,N/A,,Overcast,330,2012-11-24 22:55:00
4:55 PM,46.0,27.0,47,29.92,10.0,NW,8.1,-,N/A,,Overcast,310,2012-11-24 23:55:00
5:55 PM,44.1,27.0,51,29.95,10.0,WNW,4.6,-,N/A,,Overcast,300,2012-11-25 00:55:00
6:55 PM,44.1,28.0,53,29.95,10.0,NW,3.5,-,N/A,,Mostly Cloudy,310,2012-11-25 01:55:00
7:55 PM,43.0,30.0,60,29.96,10.0,West,3.5,-,N/A,,Scattered Clouds,270,2012-11-25 02:55:00
8:55 PM,41.0,32.0,70,29.98,10.0,West,5.8,-,N/A,,Clear,270,2012-11-25 03:55:00
9:55 PM,41.0,32.0,70,30.00,10.0,WNW,8.1,-,N/A,,Clear,300,2012-11-25 04:55:00
10:55 PM,39.0,32.0,76,29.99,10.0,NW,5.8,-,N/A,,Clear,310,2012-11-25 05:55:00
11:55 PM,39.0,30.9,73,30.00,10.0,NNW,10.4,-,N/A,,Overcast,340,2012-11-25 06:55:00